Showing default

SPEKTR R, 37755

Orbit data source: Space-Track

SPEKTR R, 37755 is a Commonwealth of Independent States-origin payload satellite in HEO that was launched on Mon, 18 Jul 2011 UTC via a ZENIT-3SLBF launch vehicle from the Tyuratam Missile And Space Complex (TTMTR). Payloads include a variety of satellites, spacecraft, and rockets equipped with specific instruments for various scientific and technological missions. These include communications satellites like Starlink; space stations such as the ISS; scientific satellites like the Hubble; Earth observation satellites from companies like Planet Labs, Umbra, and HawkEye 360; GPS; miniature CubeSats for education and research; and military/defense satellites.

Loading next visibility...
SPEKTR R details
Identifier
37755, 2011-037A
Orbit
HEO
Last TLE update2 weeks ago
Origin
Flag of CISBABTS/FIAN (CIS)
ManufacturerLavochkin
MissionNon-operational Civil Astronomy
Bus & MotorNAVIGATOR, Unknown motor
Mass3,660 kg wet, ~3,160 kg dry
Launch date (UTC)
2011-07-18 (14 years ago)
Launch vehicle
ZENIT-3SLBF
Launch site
Tyuratam Missile And Space Complex (TTMTR)
Object type
Payload
Rocket body
Debris
Shape & HBRBox + 2 Pan + 1 Dish, 18 m
Radar Cross Section18.197 m², Large (>1 m²)

Expand to show TLE details & history

TLE from 2 weeks ago
0 SPEKTR R
1 37755U 11037A   25015.02642919 -.00010987  00000-0  00000-0 0  9991
2 37755  71.8607 337.2683 8011902 318.2818 358.4693  0.09928821  5330
Epoch: 2025-01-15T00:38Z
Definitive object data (Epoch: 2025-01-15T00:38:03.482Z)
Latitude-18.14909°
Longitude-153.98593°
Altitude30,341.344 km
Speed4.437 km/s
True Right ascension22h 01m 00s
True Declination-18° 07' 46"
Sunlit
Object was in daylight at TLE epoch
Visualization TLE readout
Latitude73.61126°
Longitude-67.81669°
Altitude130,076.367 km
Speed1.954 km/s
Apparent Right ascension04h 13m 13s
Apparent Declination72° 32' 50"
Sunlit
Object is in daylight
Visualization observer readout
Local Sidereal Time20:54:55
Azimuth19.542° NNE
Elevation32.348°
Doppler factor1
Orbital elements
Apogee altitude348,459.011 km
Perigee altitude32,787.689 km
Semi-major axis197,001.487 km
Eccentricity0.8011902
Inclination71.8607°
RAAN337.2683°
Arg. of periapsis318.2818°
True anomaly337.36189°
Mean anomaly358.4693°
Eccentric anomaly352.39074°
Mean motion0.02482 °/min
BSTARUnknown
Orbital period14503.19 mins
Loading maneuver chart data...
Loading historical data...
Loading historical data...
Loading historical data...
Loading historical data...
Loading historical data...
Loading historical data...
Loading historical data...

SPEKTR R Visibility forecast

Observer location: undefined°, undefined

Span
Click to sort rows by Start time (UTC) header in descending order
Start Az.
Max El. time (UTC)
Max El. Az.
Max El.
End time (UTC)
End Az.
1440 mins2025-01-25 19:33:58.025Z19.543° NNE2025-01-26 05:36:58.025Z356.512° N40.322°2025-01-26 19:33:58.025Z6.847° NNE
|